Preview of NWS' New Version of Forecast
This preview is not operational and should not be used for support decisions.

Regional Weather Roundup (RWR)

Issued by Gray - Portland, ME (GYX)

                            
000
ASUS41 KGYX 172305
RWRGYX
WEATHER ROUNDUP FOR MAINE AND NEW HAMPSHIRE
NATIONAL WEATHER SERVICE GRAY ME
700 PM EDT SAT AUG 17 2019

MEZ002-005-006-010-012-015-018-020-021-024-026-027-029-180000-
MAINE
  
CITY           SKY/WX    TMP DP  RH WIND       PRES   REMARKS
PORTLAND       CLOUDY    68  65  90 SE7       30.03S                  
SANFORD        CLOUDY    67  66  97 SE6       30.03S                  
BAR HARBOR     CLOUDY    66  63  90 S8        30.07S                  
WISCASSET      CLOUDY    66  62  87 E5        30.06S                  
ROCKLAND       CLOUDY    63  62  97 E5        30.05F                  
FRYEBURG       CLOUDY    69  65  86 SE3       30.03S                  
LEWISTONAUBURN   N/A     66  65  96 SE5       30.04S                  
AUGUSTA        CLOUDY    67  63  87 S7        30.05S                  
WATERVILLE     CLOUDY    66  63  90 CALM      30.03S                  
BANGOR         CLOUDY    67  61  81 S8        30.06R                  
GREENVILLE       N/A     62  62 100 SE6       30.03F                  
MILLINOCKET    CLOUDY    67  63  87 VRB3      30.05F                  
HOULTON        CLOUDY    67  62  84 S5        30.03F                  
PRESQUE ISLE   CLOUDY    67  61  81 S12       30.04F                  
FRENCHVILLE    CLOUDY    64  60  87 S14       30.02F                  
CARIBOU        MOCLDY    67  60  78 S3        30.03S                  
$$

NHZ002-005-008-009-011-012-014-180000-
NEW HAMPSHIRE
  
CITY           SKY/WX    TMP DP  RH WIND       PRES   REMARKS
PORTSMOUTH     MOCLDY    68  65  93 E6        30.00S                  
ROCHESTER      CLOUDY    69  65  86 E5        30.01S                  
NASHUA         MOCLDY    78  72  81 VRB6      30.00R                  
MANCHESTER     CLOUDY    76  70  82 E7        29.98R                  
CONCORD        CLOUDY    73  67  81 E7        29.99S                  
LACONIA        CLOUDY    69  67  93 NE10      30.01S                  
PLYMOUTH       CLOUDY    70  66  86 E5        29.99F                  
BERLIN         FAIR      70  63  78 SE6       30.02R                  
WHITEFIELD     CLOUDY    73  63  70 S6        29.99R                  
JAFFREY        FAIR      77  68  73 S7        30.01R                  
KEENE          FAIR      79  70  74 S6        29.96S                  
LEBANON        MOCLDY    77  68  73 VRB3      29.94F                  
MT WASHINGTON  FOG       54  54 100 W21G32      N/A  VSB 1/16         
$$

VTZ005-007-008-180000-
VERMONT
  
CITY           SKY/WX    TMP DP  RH WIND       PRES   REMARKS
ST JOHNSBURY     N/A     70  69  97 MISG      29.97R                  
MONTPELIER     HVY RAIN  71  68  90 SW13G18   30.04R FOG              
BURLINGTON     LGT RAIN  70  65  84 S8        29.95S                  
$$

MAZ007-012-024-CTZ003-RIZ002-NYZ038-NYZ072-180000-
SOUTHERN NEW ENGLAND AND NY
  
CITY           SKY/WX    TMP DP  RH WIND       PRES   REMARKS
BOSTON         MOCLDY    72  65  78 E12       29.99R                  
WORCESTER      MOCLDY    75  70  84 S8        30.03R                  
NANTUCKET      FAIR      71  68  90 E8        29.98F                  
PROVIDENCE     MOCLDY    76  73  91 S7        29.99R                  
HARTFORD       MOCLDY    80  70  71 S8        29.96R                  
ALBANY         TSTM      71  66  84 NW6       30.00R                  
NEW YORK CITY  MOCLDY    83  70  64 SE10      29.94S                  
$$

ANZ081-ANZ082-ANZ150-NHZ014-MEZ023>029-180000-
COASTAL MARINE OBSERVATIONS
  
STATION/POSITION TIME  TEMP    WIND        PRES    WAVE
                       AIR SEA DIR/SP/G            HT/PER
                 (UTC) (F)     (DEG/KT/KT) (MB)    (FT/S)
MATINICUS ROCK   2250   60                 1017.2F
ISLE OF SHOALS   2200   66     110/  9/  9 1015.6F
JEFFREYS LEDGE   2238      68                N/A     3/ 8
CASHES LEDGE BUO 2250   66 65  120/  8/  8 1017.3F   3/ 7
GEORGES BANK BUO 2250   72 70  100/  8/  8 1017.7F   3/ 7
$$

.............KEY..............
   WCI - WIND CHILL
   TC  - TEMPERATURE IN CELSIUS
   VSB - VISIBILITY IN MILES
   HX  - HEAT INDEX
   FAIR- INDICATES FEW OR NO CLOUDS BELOW 12,000 FT, WITH NO 
         SIGNIFICANT WEATHER AND/OR OBSTRUCTIONS TO VISIBILITY.